OK2ARM-6 Weather Reports


time (UTC)temp
F
wind
direction
speed
knots
gust
knots
rain 1hr
in
rain 24hr
in
rain mn
in
humidity
%
barometer
mb
20260507184909 59 0.0 0.0 0.00 0.00 0.00 100 1013.8
20260507182646 60 0.0 0.0 0.00 0.00 0.00 100 1013.4
20260507181647 60 0.0 0.0 0.00 0.00 0.00 100 1013.1
20260507180646 61 0.0 0.0 0.00 0.00 0.00 100 1013.0
20260507171935 64 0.0 0.0 0.00 0.00 0.00 100 1012.7
20260507170935 63 0.0 0.0 0.00 0.00 0.00 100 1012.7
20260507164711 64 0.0 0.0 0.00 0.00 0.00 100 1012.5
20260507163711 65 0.0 0.0 0.00 0.00 0.00 100 1012.4
20260507162711 65 0.0 0.0 0.00 0.00 0.00 100 1012.4
20260507161712 65 0.0 0.0 0.00 0.00 0.00 100 1012.4
20260507160711 65 0.0 0.0 0.00 0.00 0.00 100 1012.2
20260507155711 65 0.0 0.0 0.00 0.00 0.00 100 1012.3
20260507154711 66 0.0 0.0 0.00 0.00 0.00 100 1012.3
20260507153711 66 0.0 0.0 0.00 0.00 0.00 100 1012.4
20260507152711 66 0.0 0.0 0.00 0.00 0.00 100 1012.3
20260507151711 67 0.0 0.0 0.00 0.00 0.00 100 1012.3
20260507150711 69 0.0 0.0 0.00 0.00 0.00 100 1012.2
20260507145711 69 0.0 0.0 0.00 0.00 0.00 100 1012.2
20260507144711 72 0.0 0.0 0.00 0.00 0.00 100 1012.1
20260507141223 69 0.0 0.0 0.00 0.00 0.00 100 1012.2
20260507140223 71 0.0 0.0 0.00 0.00 0.00 100 1012.2
20260507135222 70 0.0 0.0 0.00 0.00 0.00 100 1012.2
20260507134223 65 0.0 0.0 0.00 0.00 0.00 100 1012.1
20260507133223 67 0.0 0.0 0.00 0.00 0.00 100 1012.1
20260507132222 67 0.0 0.0 0.00 0.00 0.00 100 1012.1
20260507131222 66 0.0 0.0 0.00 0.00 0.00 100 1012.2
20260507130222 66 0.0 0.0 0.00 0.00 0.00 100 1012.2
20260507125222 67 0.0 0.0 0.00 0.00 0.00 100 1012.3
20260507124223 70 0.0 0.0 0.00 0.00 0.00 100 1012.1
20260507123223 70 0.0 0.0 0.00 0.00 0.00 100 1012.2
20260507122222 69 0.0 0.0 0.00 0.00 0.00 100 1012.2
20260507121223 74 0.0 0.0 0.00 0.00 0.00 100 1012.2
20260507120222 70 0.0 0.0 0.00 0.00 0.00 100 1012.3
20260507115222 67 0.0 0.0 0.00 0.00 0.00 100 1012.4
20260507114222 70 0.0 0.0 0.00 0.00 0.00 100 1012.3
20260507113222 68 0.0 0.0 0.00 0.00 0.00 100 1012.4
20260507112223 71 0.0 0.0 0.00 0.00 0.00 100 1012.4
20260507111222 70 0.0 0.0 0.00 0.00 0.00 100 1012.3
20260507110223 72 0.0 0.0 0.00 0.00 0.00 100 1012.3
20260507105222 68 0.0 0.0 0.00 0.00 0.00 100 1012.4
20260507104223 69 0.0 0.0 0.00 0.00 0.00 100 1012.4
20260507101958 66 0.0 0.0 0.00 0.00 0.00 100 1012.4
20260507100959 66 0.0 0.0 0.00 0.00 0.00 100 1012.4
20260507095958 66 0.0 0.0 0.00 0.00 0.00 100 1012.4
20260507094959 65 0.0 0.0 0.00 0.00 0.00 100 1012.3
20260507093959 65 0.0 0.0 0.00 0.00 0.00 100 1012.3
20260507092959 63 0.0 0.0 0.00 0.00 0.00 100 1012.3
20260507091959 63 0.0 0.0 0.00 0.00 0.00 100 1012.2
20260507090959 63 0.0 0.0 0.00 0.00 0.00 100 1012.2
20260507085958 62 0.0 0.0 0.00 0.00 0.00 100 1012.0
20260507084958 61 0.0 0.0 0.00 0.00 0.00 100 1011.9
20260507083958 62 0.0 0.0 0.00 0.00 0.00 100 1012.0
20260507080512 59 0.0 0.0 0.00 0.00 0.00 6 1011.6
20260507075511 60 0.0 0.0 0.00 0.00 0.00 100 1011.7
20260507074511 60 0.0 0.0 0.00 0.00 0.00 10 1011.7
20260507073511 59 0.0 0.0 0.00 0.00 0.00 41 1011.7
20260507072511 59 0.0 0.0 0.00 0.00 0.00 43 1011.6
20260507071511 58 0.0 0.0 0.00 0.00 0.00 41 1011.5
20260507070512 58 0.0 0.0 0.00 0.00 0.00 59 1011.5
20260507065511 58 0.0 0.0 0.00 0.00 0.00 55 1011.5
20260507064511 58 0.0 0.0 0.00 0.00 0.00 58 1011.3
20260507062247 58 0.0 0.0 0.00 0.00 0.00 76 1011.2
20260507061247 57 0.0 0.0 0.00 0.00 0.00 67 1010.9
20260507060247 57 0.0 0.0 0.00 0.00 0.00 78 1010.8
20260507055248 57 0.0 0.0 0.00 0.00 0.00 88 1010.7
20260507054247 56 0.0 0.0 0.00 0.00 0.00 95 1010.7
20260507052024 56 0.0 0.0 0.00 0.00 0.00 100 1010.6
20260507051025 55 0.0 0.0 0.00 0.00 0.00 100 1010.5
20260507044800 53 0.0 0.0 0.00 0.00 0.00 100 1010.1
20260507043800 53 0.0 0.0 0.00 0.00 0.00 100 1010.0
20260507042800 53 0.0 0.0 0.00 0.00 0.00 100 1009.8
20260507041800 53 0.0 0.0 0.00 0.00 0.00 100 1009.8
20260507040800 52 0.0 0.0 0.00 0.00 0.00 100 1009.8
20260507035801 51 0.0 0.0 0.00 0.00 0.00 100 1009.7
20260507033537 51 0.0 0.0 0.00 0.00 0.00 100 1009.4
20260507032536 51 0.0 0.0 0.00 0.00 0.00 100 1009.4
20260507031536 52 0.0 0.0 0.00 0.00 0.00 100 1009.2
20260507030536 52 0.0 0.0 0.00 0.00 0.00 100 1009.2
20260507023049 53 0.0 0.0 0.00 0.00 0.00 100 1008.9
20260507022049 53 0.0 0.0 0.00 0.00 0.00 100 1008.9
20260507021050 53 0.0 0.0 0.00 0.00 0.00 100 1009.0
20260507020049 53 0.0 0.0 0.00 0.00 0.00 100 1008.8
20260507013825 54 0.0 0.0 0.00 0.00 0.00 100 1008.4
20260507012825 54 0.0 0.0 0.00 0.00 0.00 100 1008.2
20260507011825 55 0.0 0.0 0.00 0.00 0.00 100 1008.2
20260507010825 55 0.0 0.0 0.00 0.00 0.00 100 1008.2
20260507005825 55 0.0 0.0 0.00 0.00 0.00 100 1008.1
20260507004825 55 0.0 0.0 0.00 0.00 0.00 100 1008.1
20260507003825 55 0.0 0.0 0.00 0.00 0.00 100 1007.9
20260507002825 55 0.0 0.0 0.00 0.00 0.00 100 1007.6
20260507001825 55 0.0 0.0 0.00 0.00 0.00 100 1007.8
20260507000825 56 0.0 0.0 0.00 0.00 0.00 100 1007.8
20260506235825 56 0.0 0.0 0.00 0.00 0.00 100 1007.8
20260506232338 56 0.0 0.0 0.00 0.00 0.00 100 1007.4
20260506231338 56 0.0 0.0 0.00 0.00 0.00 100 1007.1
20260506230338 56 0.0 0.0 0.00 0.00 0.00 100 1006.7
20260506225338 57 0.0 0.0 0.00 0.00 0.00 100 1006.7
20260506224338 57 0.0 0.0 0.00 0.00 0.00 100 1006.4
20260506220849 59 0.0 0.0 0.00 0.00 0.00 100 1005.9
20260506215849 60 0.0 0.0 0.00 0.00 0.00 35 1005.8
20260506213624 61 0.0 0.0 0.00 0.00 0.00 100 1005.6
20260506212624 61 0.0 0.0 0.00 0.00 0.00 100 1005.4
20260506211624 62 0.0 0.0 0.00 0.00 0.00 100 1005.2
20260506210624 62 0.0 0.0 0.00 0.00 0.00 100 1005.1
20260506205624 63 0.0 0.0 0.00 0.00 0.00 100 1004.7
20260506204625 63 0.0 0.0 0.00 0.00 0.00 100 1004.7
20260506203624 63 0.0 0.0 0.00 0.00 0.00 100 1004.7
20260506202624 64 0.0 0.0 0.00 0.00 0.00 100 1004.6
20260506201625 64 0.0 0.0 0.00 0.00 0.00 100 1004.7
20260506200624 64 0.0 0.0 0.00 0.00 0.00 100 1004.8
20260506195624 65 0.0 0.0 0.00 0.00 0.00 100 1004.7
20260506194624 65 0.0 0.0 0.00 0.00 0.00 100 1004.7
20260506193624 65 0.0 0.0 0.00 0.00 0.00 100 1004.6
20260506192625 66 0.0 0.0 0.00 0.00 0.00 100 1004.5
20260506191624 66 0.0 0.0 0.00 0.00 0.00 100 1004.3
20260506190624 66 0.0 0.0 0.00 0.00 0.00 100 1004.2